STARLINK-35043

Last updated on Tue Sep 16 2025 00:02:08 GMT+0000 (Coordinated Universal Time)

1 65436U 25194C 25258.00975535 .00536829 00000+0 17358-2 0 9999 2 65436 97.5975 109.3658 0000389 9.6825 350.4455 15.89585556 3095
UTC large
Height (km)
Speed (km/s)
/
Latitude / Longitude
Inclination (degrees)
Orbital Period (minutes)
Azimuth
Elevation
Range (km)
Doppler Factor

Next 0 passes for location: London (51.5072 / 0.1276)

Sorry there are no passes over London.